Date String (YYYY-MM-DD hh:mm:ss) UTC,Instrument flags,absolute air pressure of the measurement (hPa),sample flow rate (lpm),inlet stack bypass flow (lpm),air temperature of the measurement (°C),ambient temperature measured by the external sensor (°C),aerosol sample conditioner tube jacket temperature (°C),OPC LED temperature (°C),internal box temperature (°C),relative humidity of the measurement (%),span deviation,mass concentration of particles derived from Lorenz-Mie calculation of OPC scattering (μg/m³),mass concentration of particles derived from Lorenz-Mie calculation of OPC scattering (μg/m³),mass concentration of particles derived from Lorenz-Mie calculation of OPC scattering (μg/m³)
DateTimeUTC,F1_M11,P_M11,Q1_M11,Q2_M11,T1_M11,T2_M11,T3_M11,T4_M11,T5_M11,U1_M11,ZSPAN_M11,X2_M11,X0_M11,X1_M11
2024-06-06 02:00:00,SystemResetWarning,0828.1,4.99,000.00,029.0,028.6,000.0,037.1,030.9,017.4,0000.0,0001.61,0005.03,0000.90
2024-06-06 02:01:00,SystemResetWarning,0828.1,5.00,000.00,029.1,028.8,000.0,037.1,031.0,017.4,0000.0,0001.60,0005.02,0000.89
2024-06-06 02:02:00,SystemResetWarning,0828.1,5.00,000.00,029.1,028.9,000.0,037.2,031.1,017.3,0000.0,0001.58,0004.99,0000.89
2024-06-06 02:03:00,SystemResetWarning,0828.1,5.00,000.00,029.2,029.1,000.0,037.3,031.2,017.2,0000.0,0001.57,0005.06,0000.89
2024-06-06 02:04:00,SystemResetWarning,0828.0,5.00,000.00,029.3,029.2,000.0,037.3,031.3,017.2,0000.0,0001.60,0005.53,0000.88
2024-06-06 02:05:00,SystemResetWarning,0828.1,4.98,000.00,029.3,028.0,000.0,037.4,030.7,017.2,0000.0,0001.64,0006.70,0000.89
2024-06-06 02:06:00,SystemResetWarning,0828.0,5.01,000.00,028.9,025.5,000.0,037.4,029.6,017.6,0000.0,0001.65,0007.15,0000.89
2024-06-06 02:07:00,SystemResetWarning,0828.1,5.01,000.00,028.6,025.3,000.0,037.4,029.4,017.9,0000.0,0001.74,0006.73,0000.91
2024-06-06 02:08:00,SystemResetWarning,0828.0,4.99,000.00,028.5,026.0,000.0,037.3,029.7,018.1,0000.0,0001.77,0006.58,0000.92
2024-06-06 02:09:00,SystemResetWarning,0828.1,5.00,000.00,028.6,026.5,000.0,037.2,030.0,018.1,0000.0,0001.74,0006.34,0000.92
2024-06-06 02:10:00,SystemResetWarning,0828.1,5.01,000.00,028.6,026.9,000.0,037.1,030.2,018.0,0000.0,0001.79,0006.10,0000.93
2024-06-06 02:11:00,SystemResetWarning,0828.2,5.00,000.00,028.7,027.4,000.0,037.1,030.4,018.0,0000.0,0001.80,0006.41,0000.94
2024-06-06 02:12:00,SystemResetWarning,0828.2,5.00,000.00,028.8,027.8,000.0,037.1,030.5,018.1,0000.0,0001.78,0006.41,0000.93
2024-06-06 02:13:00,SystemResetWarning,0828.1,5.00,000.00,028.9,028.1,000.0,037.1,030.7,017.9,0000.0,0001.78,0006.56,0000.94
2024-06-06 02:14:00,SystemResetWarning,0828.2,5.01,000.00,028.9,028.3,000.0,037.1,030.8,017.8,0000.0,0001.82,0006.65,0000.95
2024-06-06 02:15:00,SystemResetWarning,0828.2,5.00,000.00,029.0,028.5,000.0,037.2,030.9,017.7,0000.0,0001.80,0006.12,0000.96
2024-06-06 02:16:00,SystemResetWarning,0828.2,4.99,000.00,029.1,028.7,000.0,037.2,031.0,017.7,0000.0,0001.81,0006.06,0000.95
2024-06-06 02:17:00,SystemResetWarning,0828.2,4.99,000.00,029.2,028.9,000.0,037.3,031.1,017.5,0000.0,0001.81,0005.51,0000.95
2024-06-06 02:18:00,SystemResetWarning,0828.2,5.00,000.00,029.3,029.0,000.0,037.3,031.2,017.3,0000.0,0001.75,0005.32,0000.95
2024-06-06 02:19:00,SystemResetWarning,0828.3,5.01,000.00,029.4,029.2,000.0,037.4,031.3,017.2,0000.0,0001.72,0004.95,0000.95
2024-06-06 02:20:00,SystemResetWarning,0828.2,4.99,000.00,029.3,027.9,000.0,037.4,030.7,017.2,0000.0,0001.74,0006.87,0000.96
2024-06-06 02:21:00,SystemResetWarning,0828.0,5.02,000.00,028.9,025.5,000.0,037.5,029.5,017.5,0000.0,0001.71,0007.38,0000.97
2024-06-06 02:22:00,SystemResetWarning,0827.9,5.00,000.00,028.6,025.4,000.0,037.4,029.4,017.8,0000.0,0001.78,0007.53,0000.97
2024-06-06 02:23:00,SystemResetWarning,0828.1,5.00,000.00,028.6,026.0,000.0,037.3,029.6,017.8,0000.0,0001.81,0007.85,0000.98
2024-06-06 02:24:00,SystemResetWarning,0828.1,5.00,000.00,028.6,026.5,000.0,037.2,030.0,017.7,0000.0,0001.83,0007.82,0000.98
2024-06-06 02:25:00,SystemResetWarning,0828.3,4.99,000.00,028.6,027.0,000.0,037.2,030.2,017.7,0000.0,0001.83,0007.96,0000.99
2024-06-06 02:26:00,SystemResetWarning,0828.3,5.00,000.00,028.7,027.4,000.0,037.1,030.4,017.7,0000.0,0001.85,0008.45,0000.99
2024-06-06 02:27:00,SystemResetWarning,0828.3,5.01,000.00,028.8,027.7,000.0,037.1,030.6,017.6,0000.0,0001.85,0008.22,0000.99
2024-06-06 02:28:00,SystemResetWarning,0828.3,5.00,000.00,028.9,028.0,000.0,037.1,030.7,017.5,0000.0,0001.84,0008.63,0001.00
2024-06-06 02:29:00,SystemResetWarning,0828.2,4.99,000.00,028.9,028.3,000.0,037.2,030.8,017.4,0000.0,0001.80,0009.13,0001.00
2024-06-06 02:30:00,SystemResetWarning,0828.2,5.00,000.00,029.0,028.5,000.0,037.2,030.9,017.2,0000.0,0001.84,0009.57,0000.99
2024-06-06 02:31:00,SystemResetWarning,0828.3,4.99,000.00,029.1,028.7,000.0,037.2,031.0,017.1,0000.0,0001.84,0008.81,0000.99
2024-06-06 02:32:00,SystemResetWarning,0828.3,5.00,000.00,029.2,028.9,000.0,037.3,031.1,017.1,0000.0,0001.85,0008.19,0000.98
2024-06-06 02:33:00,SystemResetWarning,0828.3,5.00,000.00,029.3,029.0,000.0,037.3,031.2,017.0,0000.0,0001.83,0008.05,0000.97
2024-06-06 02:34:00,SystemResetWarning,0828.2,5.00,000.00,029.4,029.1,000.0,037.4,031.3,016.8,0000.0,0001.81,0007.71,0000.96
2024-06-06 02:35:00,SystemResetWarning,0828.3,5.00,000.00,029.4,029.2,000.0,037.4,031.4,016.8,0000.0,0001.84,0007.98,0000.96
2024-06-06 02:36:00,SystemResetWarning,0828.3,4.99,000.00,029.4,027.9,000.0,037.5,030.7,016.8,0000.0,0001.86,0008.42,0000.96
2024-06-06 02:37:00,SystemResetWarning,0828.2,5.01,000.00,029.0,025.4,000.0,037.5,029.6,017.1,0000.0,0001.82,0007.91,0000.96
2024-06-06 02:38:00,SystemResetWarning,0828.1,5.02,000.00,028.7,025.3,000.0,037.5,029.4,017.5,0000.0,0001.83,0007.67,0000.96
2024-06-06 02:39:00,SystemResetWarning,0828.2,4.99,000.00,028.6,026.0,000.0,037.3,029.7,017.5,0000.0,0001.81,0007.30,0000.95
2024-06-06 02:40:00,SystemResetWarning,0828.3,5.00,000.00,028.6,026.4,000.0,037.3,030.0,017.5,0000.0,0001.86,0007.17,0000.95
2024-06-06 02:41:00,SystemResetWarning,0828.3,5.00,000.00,028.7,026.9,000.0,037.2,030.2,017.6,0000.0,0001.79,0007.61,0000.95
2024-06-06 02:42:00,SystemResetWarning,0828.3,5.00,000.00,028.7,027.3,000.0,037.2,030.4,017.6,0000.0,0001.78,0007.69,0000.95
2024-06-06 02:43:00,SystemResetWarning,0828.3,4.99,000.00,028.8,027.7,000.0,037.2,030.6,017.4,0000.0,0001.84,0007.82,0000.97
2024-06-06 02:44:00,SystemResetWarning,0828.3,4.98,000.00,028.9,028.0,000.0,037.2,030.7,017.3,0000.0,0001.85,0008.08,0000.97
2024-06-06 02:45:00,SystemResetWarning,0828.3,5.01,000.00,028.9,028.2,000.0,037.2,030.8,017.2,0000.0,0001.82,0008.12,0000.97
2024-06-06 02:46:00,SystemResetWarning,0828.2,5.01,000.00,029.0,028.5,000.0,037.2,030.9,017.2,0000.0,0001.79,0008.09,0000.97
2024-06-06 02:47:00,SystemResetWarning,0828.2,5.01,000.00,029.1,028.6,000.0,037.2,031.0,016.9,0000.0,0001.77,0007.54,0000.98
2024-06-06 02:48:00,SystemResetWarning,0828.4,4.99,000.00,029.2,028.8,000.0,037.3,031.1,016.7,0000.0,0001.74,0007.54,0000.97
2024-06-06 02:49:00,SystemResetWarning,0828.4,5.00,000.00,029.3,029.0,000.0,037.3,031.2,016.8,0000.0,0001.72,0007.56,0000.97
2024-06-06 02:50:00,SystemResetWarning,0828.4,5.01,000.00,029.4,029.1,000.0,037.4,031.3,016.7,0000.0,0001.70,0007.49,0000.96
2024-06-06 02:51:00,SystemResetWarning,0828.4,5.00,000.00,029.4,029.2,000.0,037.4,031.4,016.5,0000.0,0001.66,0007.59,0000.97
2024-06-06 02:52:00,SystemResetWarning,0828.4,5.00,000.00,029.5,028.9,000.0,037.5,031.2,016.5,0000.0,0001.65,0006.65,0000.97
2024-06-06 02:53:00,SystemResetWarning,0828.4,4.98,000.00,029.3,026.8,000.0,037.5,030.3,016.8,0000.0,0001.68,0006.84,0000.97
2024-06-06 02:54:00,SystemResetWarning,0828.4,5.03,000.00,029.0,026.4,000.0,037.6,030.0,016.9,0000.0,0001.59,0007.32,0000.97
2024-06-06 02:55:00,SystemResetWarning,0828.4,5.00,000.00,028.9,026.8,000.0,037.5,030.2,017.0,0000.0,0001.51,0006.82,0000.96
2024-06-06 02:56:00,SystemResetWarning,0828.4,5.00,000.00,029.0,027.2,000.0,037.4,030.4,016.9,0000.0,0001.48,0006.51,0000.95
2024-06-06 02:57:00,SystemResetWarning,0828.4,5.00,000.00,029.0,027.6,000.0,037.4,030.6,016.7,0000.0,0001.50,0006.18,0000.94
2024-06-06 02:58:00,SystemResetWarning,0828.5,5.00,000.00,029.1,027.9,000.0,037.4,030.8,016.7,0000.0,0001.50,0006.42,0000.93
2024-06-06 02:59:00,SystemResetWarning,0828.5,5.00,000.00,029.2,028.2,000.0,037.4,030.9,016.6,0000.0,0001.53,0006.64,0000.93
